Time,TemperatureF,DewpointF,PressureIn,WindDirection,WindDirectionDegrees,WindSpeedMPH,WindSpeedGustMPH,Humidity,HourlyPrecipIn,Conditions,Clouds,dailyrainin,SoftwareType,DateUTC
2013-05-31 00:01:00,64.0,61.0,29.79,SW,220,9.0,-999.0,88,0.15,,,-99.99,,2013-05-31 00:01:00,
2013-05-31 00:11:00,64.0,61.0,29.79,SW,220,9.0,-999.0,88,0.15,,,-99.99,,2013-05-31 00:11:00,
2013-05-31 00:21:00,64.0,61.0,29.79,South,170,9.0,-999.0,88,0.01,,,-99.99,,2013-05-31 00:21:00,
2013-05-31 00:32:00,64.0,61.0,29.80,SSE,150,7.0,-999.0,88,0.02,,,-99.99,,2013-05-31 00:32:00,
2013-05-31 00:42:00,64.0,61.0,29.78,SSE,160,7.0,-999.0,88,0.03,,,-99.99,,2013-05-31 00:42:00,
2013-05-31 00:52:00,64.0,61.0,29.77,SSE,150,8.0,-999.0,88,0.03,,,-99.99,,2013-05-31 00:52:00,
2013-05-31 01:01:00,64.0,61.0,29.78,SSE,150,10.0,-999.0,88,0.03,,,-99.99,,2013-05-31 01:01:00,
2013-05-31 01:12:00,64.0,61.0,29.78,SSE,150,10.0,-999.0,88,0.03,,,-99.99,,2013-05-31 01:12:00,
2013-05-31 01:21:00,64.0,61.0,29.75,SE,140,16.0,22.0,88,-99.99,,,-99.99,,2013-05-31 01:21:00,
2013-05-31 01:32:00,64.0,61.0,29.76,South,180,12.0,23.0,88,-99.99,,,-99.99,,2013-05-31 01:32:00,
2013-05-31 01:42:00,64.0,61.0,29.75,SSE,150,12.0,21.0,88,-99.99,,,-99.99,,2013-05-31 01:42:00,
2013-05-31 01:52:00,64.0,61.0,29.75,SSE,160,12.0,20.0,88,-99.99,,,-99.99,,2013-05-31 01:52:00,
2013-05-31 02:02:00,66.0,61.0,29.75,SSW,210,8.0,-999.0,82,-99.99,,,-99.99,,2013-05-31 02:02:00,
2013-05-31 02:11:00,66.0,61.0,29.75,SSW,210,8.0,-999.0,82,-99.99,,,-99.99,,2013-05-31 02:11:00,
2013-05-31 02:21:00,68.0,61.0,29.75,South,170,24.0,33.0,77,-99.99,,,-99.99,,2013-05-31 02:21:00,
2013-05-31 02:32:00,66.0,59.0,29.75,SSE,160,25.0,35.0,77,-99.99,,,-99.99,,2013-05-31 02:32:00,
2013-05-31 02:41:00,66.0,61.0,29.78,South,180,21.0,30.0,82,0.01,,,-99.99,,2013-05-31 02:41:00,
2013-05-31 02:52:00,66.0,61.0,29.76,SSE,160,15.0,30.0,82,0.01,,,-99.99,,2013-05-31 02:52:00,
2013-05-31 03:01:00,66.0,63.0,29.76,SE,140,17.0,24.0,88,0.01,,,-99.99,,2013-05-31 03:01:00,
2013-05-31 03:11:00,66.0,63.0,29.76,SE,140,17.0,24.0,88,0.01,,,-99.99,,2013-05-31 03:11:00,
2013-05-31 03:21:00,66.0,63.0,29.76,SSE,150,15.0,21.0,88,-99.99,,,-99.99,,2013-05-31 03:21:00,
2013-05-31 03:33:00,66.0,61.0,29.76,SSE,150,13.0,20.0,82,-99.99,,,-99.99,,2013-05-31 03:33:00,
2013-05-31 03:43:00,66.0,61.0,29.76,SSE,150,9.0,17.0,82,-99.99,,,-99.99,,2013-05-31 03:43:00,
2013-05-31 03:53:00,64.0,61.0,29.78,SSE,160,12.0,-999.0,88,-99.99,,,-99.99,,2013-05-31 03:53:00,
2013-05-31 04:02:00,64.0,61.0,29.79,SSE,160,9.0,16.0,88,-99.99,,,-99.99,,2013-05-31 04:02:00,
2013-05-31 04:12:00,64.0,61.0,29.79,SSE,160,9.0,16.0,88,-99.99,,,-99.99,,2013-05-31 04:12:00,
2013-05-31 04:22:00,64.0,61.0,29.81,SSE,160,7.0,-999.0,88,-99.99,,,-99.99,,2013-05-31 04:22:00,
2013-05-31 04:32:00,64.0,61.0,29.81,South,170,7.0,-999.0,88,-99.99,,,-99.99,,2013-05-31 04:32:00,
2013-05-31 04:42:00,64.0,61.0,29.80,South,170,7.0,-999.0,88,-99.99,,,-99.99,,2013-05-31 04:42:00,
2013-05-31 04:53:00,64.0,61.0,29.81,South,180,8.0,-999.0,88,-99.99,,,-99.99,,2013-05-31 04:53:00,
2013-05-31 05:02:00,64.0,61.0,29.81,South,170,8.0,-999.0,88,-99.99,,,-99.99,,2013-05-31 05:02:00,
2013-05-31 05:12:00,64.0,61.0,29.81,South,170,8.0,-999.0,88,-99.99,,,-99.99,,2013-05-31 05:12:00,
2013-05-31 05:22:00,64.0,61.0,29.81,South,170,9.0,-999.0,88,-99.99,,,-99.99,,2013-05-31 05:22:00,
2013-05-31 05:32:00,64.0,63.0,29.81,SSE,160,8.0,-999.0,93,-99.99,,,-99.99,,2013-05-31 05:32:00,
2013-05-31 05:42:00,64.0,63.0,29.81,SSE,160,9.0,-999.0,93,-99.99,,,-99.99,,2013-05-31 05:42:00,
2013-05-31 05:52:00,64.0,63.0,29.80,South,170,9.0,16.0,93,-99.99,,,-99.99,,2013-05-31 05:52:00,
2013-05-31 06:02:00,64.0,63.0,29.80,South,170,10.0,-999.0,93,-99.99,,,-99.99,,2013-05-31 06:02:00,
2013-05-31 06:12:00,64.0,63.0,29.80,South,170,10.0,-999.0,93,-99.99,,,-99.99,,2013-05-31 06:12:00,
2013-05-31 06:21:00,64.0,63.0,29.80,SSE,160,8.0,-999.0,93,-99.99,,,-99.99,,2013-05-31 06:21:00,
2013-05-31 06:31:00,64.0,63.0,29.80,SSE,160,8.0,-999.0,93,-99.99,,,-99.99,,2013-05-31 06:31:00,
2013-05-31 06:41:00,64.0,63.0,29.80,SSE,160,8.0,-999.0,93,-99.99,,,-99.99,,2013-05-31 06:41:00,
2013-05-31 06:52:00,64.0,63.0,29.80,SSE,160,8.0,-999.0,93,-99.99,,,-99.99,,2013-05-31 06:52:00,
2013-05-31 07:02:00,64.0,63.0,29.80,SSE,160,8.0,-999.0,93,-99.99,,,-99.99,,2013-05-31 07:02:00,
2013-05-31 07:11:00,64.0,63.0,29.80,SSE,160,8.0,-999.0,93,-99.99,,,-99.99,,2013-05-31 07:11:00,
2013-05-31 07:21:00,64.0,63.0,29.80,SSE,160,9.0,-999.0,93,-99.99,,,-99.99,,2013-05-31 07:21:00,
2013-05-31 07:32:00,64.0,63.0,29.80,SSE,160,10.0,-999.0,93,-99.99,,,-99.99,,2013-05-31 07:32:00,
2013-05-31 07:41:00,64.0,63.0,29.79,South,170,8.0,16.0,93,-99.99,,,-99.99,,2013-05-31 07:41:00,
2013-05-31 07:52:00,64.0,63.0,29.79,SSE,160,7.0,-999.0,93,-99.99,,,-99.99,,2013-05-31 07:52:00,
2013-05-31 08:02:00,64.0,63.0,29.78,SSE,160,8.0,-999.0,93,-99.99,,,-99.99,,2013-05-31 08:02:00,
2013-05-31 08:11:00,64.0,63.0,29.78,SSE,160,8.0,-999.0,93,-99.99,,,-99.99,,2013-05-31 08:11:00,
2013-05-31 08:21:00,64.0,61.0,29.78,SSE,160,6.0,-999.0,88,-99.99,,,-99.99,,2013-05-31 08:21:00,
2013-05-31 08:32:00,64.0,61.0,29.79,South,170,6.0,-999.0,88,-99.99,,,-99.99,,2013-05-31 08:32:00,
2013-05-31 08:42:00,64.0,61.0,29.80,South,170,6.0,-999.0,88,-99.99,,,-99.99,,2013-05-31 08:42:00,
2013-05-31 08:52:00,64.0,61.0,29.79,SSE,160,5.0,-999.0,88,-99.99,,,-99.99,,2013-05-31 08:52:00,
2013-05-31 09:01:00,64.0,61.0,29.79,SSE,150,6.0,-999.0,88,-99.99,,,-99.99,,2013-05-31 09:01:00,
2013-05-31 09:11:00,64.0,61.0,29.79,SSE,150,6.0,-999.0,88,-99.99,,,-99.99,,2013-05-31 09:11:00,
2013-05-31 09:21:00,64.0,61.0,29.80,SSE,160,6.0,-999.0,88,-99.99,,,-99.99,,2013-05-31 09:21:00,
2013-05-31 09:32:00,64.0,61.0,29.79,SSE,160,7.0,-999.0,88,-99.99,,,-99.99,,2013-05-31 09:32:00,
2013-05-31 09:43:00,64.0,61.0,29.79,South,170,6.0,-999.0,88,-99.99,,,-99.99,,2013-05-31 09:43:00,
2013-05-31 09:53:00,64.0,61.0,29.80,South,170,6.0,-999.0,88,-99.99,,,-99.99,,2013-05-31 09:53:00,
2013-05-31 10:02:00,64.0,61.0,29.80,SSE,160,5.0,-999.0,88,-99.99,,,-99.99,,2013-05-31 10:02:00,
2013-05-31 10:12:00,64.0,61.0,29.80,SSE,160,5.0,-999.0,88,-99.99,,,-99.99,,2013-05-31 10:12:00,
2013-05-31 10:22:00,63.0,61.0,29.80,SSW,200,6.0,-999.0,93,-99.99,,,-99.99,,2013-05-31 10:22:00,
2013-05-31 10:33:00,63.0,61.0,29.80,South,190,5.0,-999.0,93,-99.99,,,-99.99,,2013-05-31 10:33:00,
2013-05-31 10:42:00,63.0,61.0,29.79,South,170,5.0,-999.0,93,-99.99,,,-99.99,,2013-05-31 10:42:00,
2013-05-31 10:52:00,63.0,61.0,29.80,South,180,5.0,-999.0,93,-99.99,,,-99.99,,2013-05-31 10:52:00,
2013-05-31 11:02:00,63.0,61.0,29.80,South,170,3.0,-999.0,93,-99.99,,,-99.99,,2013-05-31 11:02:00,
2013-05-31 11:11:00,63.0,61.0,29.80,South,170,3.0,-999.0,93,-99.99,,,-99.99,,2013-05-31 11:11:00,
2013-05-31 11:22:00,63.0,61.0,29.80,North,0,0.0,-999.0,93,-99.99,,,-99.99,,2013-05-31 11:22:00,
2013-05-31 11:32:00,64.0,61.0,29.81,North,0,0.0,-999.0,88,-99.99,,,-99.99,,2013-05-31 11:32:00,
2013-05-31 11:42:00,64.0,61.0,29.84,North,0,0.0,-999.0,88,-99.99,,,-99.99,,2013-05-31 11:42:00,
2013-05-31 11:52:00,64.0,63.0,29.83,North,0,0.0,-999.0,93,-99.99,,,-99.99,,2013-05-31 11:52:00,
2013-05-31 12:01:00,64.0,61.0,29.85,SSW,200,6.0,-999.0,88,-99.99,,,-99.99,,2013-05-31 12:01:00,
2013-05-31 12:11:00,64.0,61.0,29.85,SSW,200,6.0,-999.0,88,-99.99,,,-99.99,,2013-05-31 12:11:00,
2013-05-31 12:21:00,64.0,61.0,29.85,SW,220,7.0,-999.0,88,0.02,,,-99.99,,2013-05-31 12:21:00,
2013-05-31 12:31:00,64.0,63.0,29.85,SSW,200,6.0,-999.0,93,0.03,,,-99.99,,2013-05-31 12:31:00,
2013-05-31 12:41:00,64.0,63.0,29.87,SSE,160,5.0,-999.0,93,0.04,,,-99.99,,2013-05-31 12:41:00,
2013-05-31 12:52:00,64.0,63.0,29.88,South,180,8.0,-999.0,93,0.05,,,-99.99,,2013-05-31 12:52:00,
2013-05-31 13:01:00,64.0,63.0,29.86,WSW,240,5.0,-999.0,93,0.08,,,-99.99,,2013-05-31 13:01:00,
2013-05-31 13:11:00,64.0,63.0,29.86,WSW,240,5.0,-999.0,93,0.08,,,-99.99,,2013-05-31 13:11:00,
2013-05-31 13:21:00,66.0,63.0,29.85,West,270,8.0,-999.0,88,0.01,,,-99.99,,2013-05-31 13:21:00,
2013-05-31 13:32:00,66.0,63.0,29.88,SSE,160,10.0,-999.0,88,0.02,,,-99.99,,2013-05-31 13:32:00,
2013-05-31 13:42:00,64.0,63.0,29.87,SSW,200,5.0,-999.0,93,0.04,,,-99.99,,2013-05-31 13:42:00,
2013-05-31 13:52:00,64.0,63.0,29.90,South,180,9.0,-999.0,93,0.05,,,-99.99,,2013-05-31 13:52:00,
2013-05-31 14:02:00,64.0,63.0,29.89,WSW,240,8.0,-999.0,93,0.06,,,-99.99,,2013-05-31 14:02:00,
2013-05-31 14:11:00,64.0,63.0,29.89,WSW,240,8.0,-999.0,93,0.06,,,-99.99,,2013-05-31 14:11:00,
2013-05-31 14:21:00,64.0,63.0,29.87,NW,310,12.0,17.0,93,-99.99,,,-99.99,,2013-05-31 14:21:00,
2013-05-31 14:32:00,64.0,61.0,29.87,NNW,330,6.0,-999.0,88,0.01,,,-99.99,,2013-05-31 14:32:00,
2013-05-31 14:41:00,64.0,61.0,29.88,NNE,30,3.0,-999.0,88,0.02,,,-99.99,,2013-05-31 14:41:00,
2013-05-31 14:52:00,64.0,61.0,29.88,North,0,0.0,-999.0,88,0.03,,,-99.99,,2013-05-31 14:52:00,
2013-05-31 15:01:00,64.0,61.0,29.88,NNE,20,5.0,-999.0,88,0.05,,,-99.99,,2013-05-31 15:01:00,
2013-05-31 15:11:00,64.0,61.0,29.88,NNE,20,5.0,-999.0,88,0.05,,,-99.99,,2013-05-31 15:11:00,
2013-05-31 15:21:00,64.0,61.0,29.81,ENE,70,13.0,-999.0,88,0.01,,,-99.99,,2013-05-31 15:21:00,
2013-05-31 15:33:00,63.0,61.0,29.79,ENE,60,12.0,18.0,93,0.03,,,-99.99,,2013-05-31 15:33:00,
2013-05-31 15:43:00,64.0,61.0,29.78,East,90,12.0,20.0,88,0.04,,,-99.99,,2013-05-31 15:43:00,
2013-05-31 15:53:00,64.0,61.0,29.79,East,80,9.0,16.0,88,0.05,,,-99.99,,2013-05-31 15:53:00,
2013-05-31 16:03:00,64.0,61.0,29.79,East,100,9.0,17.0,88,0.07,,,-99.99,,2013-05-31 16:03:00,
2013-05-31 16:12:00,64.0,61.0,29.79,East,100,9.0,17.0,88,0.07,,,-99.99,,2013-05-31 16:12:00,
2013-05-31 16:22:00,64.0,61.0,29.82,East,90,9.0,-999.0,88,0.01,,,-99.99,,2013-05-31 16:22:00,
2013-05-31 16:33:00,66.0,61.0,29.80,East,80,6.0,-999.0,82,0.02,,,-99.99,,2013-05-31 16:33:00,
2013-05-31 16:42:00,66.0,63.0,29.81,ENE,60,3.0,-999.0,88,0.02,,,-99.99,,2013-05-31 16:42:00,
2013-05-31 16:52:00,66.0,63.0,29.80,East,100,7.0,-999.0,88,0.02,,,-99.99,,2013-05-31 16:52:00,
2013-05-31 17:02:00,66.0,63.0,29.80,ESE,110,6.0,-999.0,88,0.03,,,-99.99,,2013-05-31 17:02:00,
2013-05-31 17:12:00,66.0,63.0,29.80,ESE,110,6.0,-999.0,88,0.03,,,-99.99,,2013-05-31 17:12:00,
2013-05-31 17:22:00,66.0,63.0,29.82,NNE,20,3.0,-999.0,88,-99.99,,,-99.99,,2013-05-31 17:22:00,
2013-05-31 17:32:00,66.0,63.0,29.82,North,350,3.0,-999.0,88,0.01,,,-99.99,,2013-05-31 17:32:00,
2013-05-31 17:42:00,66.0,63.0,29.83,NNW,330,5.0,-999.0,88,0.02,,,-99.99,,2013-05-31 17:42:00,
2013-05-31 17:52:00,66.0,63.0,29.83,NNW,330,5.0,-999.0,88,0.02,,,-99.99,,2013-05-31 17:52:00,
2013-05-31 18:01:00,66.0,63.0,29.83,NNW,330,5.0,-999.0,88,0.02,,,-99.99,,2013-05-31 18:01:00,
2013-05-31 18:11:00,66.0,63.0,29.83,NNW,330,5.0,-999.0,88,0.02,,,-99.99,,2013-05-31 18:11:00,
2013-05-31 20:22:00,-999.0,-99.9,29.78,North,0,0.0,-999.0,-999,0.01,,,-99.99,,2013-05-31 20:22:00,
2013-05-31 20:32:00,-999.0,-99.9,29.78,East,100,3.0,-999.0,-999,0.02,,,-99.99,,2013-05-31 20:32:00,
2013-05-31 20:42:00,-999.0,-99.9,29.78,East,100,6.0,-999.0,-999,0.02,,,-99.99,,2013-05-31 20:42:00,
2013-05-31 20:52:00,-999.0,-99.9,29.77,East,80,6.0,-999.0,-999,0.03,,,-99.99,,2013-05-31 20:52:00,
2013-05-31 21:01:00,-999.0,-99.9,29.77,ESE,110,5.0,-999.0,-999,0.04,,,-99.99,,2013-05-31 21:01:00,
2013-05-31 21:12:00,-999.0,-99.9,29.77,ESE,110,5.0,-999.0,-999,0.04,,,-99.99,,2013-05-31 21:12:00,
2013-05-31 21:22:00,-999.0,-99.9,29.76,ESE,120,5.0,-999.0,-999,-99.99,,,-99.99,,2013-05-31 21:22:00,
2013-05-31 21:33:00,-999.0,-99.9,29.75,East,90,6.0,-999.0,-999,-99.99,,,-99.99,,2013-05-31 21:33:00,
2013-05-31 21:43:00,-999.0,-99.9,29.74,East,100,3.0,-999.0,-999,-99.99,,,-99.99,,2013-05-31 21:43:00,
2013-05-31 21:54:00,-999.0,-99.9,29.74,ESE,120,5.0,-999.0,-999,-99.99,,,-99.99,,2013-05-31 21:54:00,
2013-05-31 22:03:00,-999.0,-99.9,29.74,North,0,0.0,-999.0,-999,-99.99,,,-99.99,,2013-05-31 22:03:00,
2013-05-31 22:12:00,-999.0,-99.9,29.74,North,0,0.0,-999.0,-999,-99.99,,,-99.99,,2013-05-31 22:12:00,
2013-05-31 22:22:00,-999.0,-99.9,29.73,East,90,3.0,-999.0,-999,-99.99,,,-99.99,,2013-05-31 22:22:00,
2013-05-31 22:33:00,-999.0,-99.9,29.73,ESE,110,5.0,-999.0,-999,-99.99,,,-99.99,,2013-05-31 22:33:00,
2013-05-31 22:42:00,-999.0,-99.9,29.74,ESE,120,3.0,-999.0,-999,-99.99,,,-99.99,,2013-05-31 22:42:00,
2013-05-31 22:53:00,-999.0,-99.9,29.74,ESE,110,3.0,-999.0,-999,-99.99,,,-99.99,,2013-05-31 22:53:00,
2013-05-31 23:02:00,-999.0,-99.9,29.73,ESE,120,6.0,-999.0,-999,-99.99,,,-99.99,,2013-05-31 23:02:00,
2013-05-31 23:12:00,-999.0,-99.9,29.73,ESE,120,6.0,-999.0,-999,-99.99,,,-99.99,,2013-05-31 23:12:00,
2013-05-31 23:22:00,-999.0,-99.9,29.73,ESE,120,3.0,-999.0,-999,-99.99,,,-99.99,,2013-05-31 23:22:00,
2013-05-31 23:32:00,-999.0,-99.9,29.73,SE,140,3.0,-999.0,-999,0.01,,,-99.99,,2013-05-31 23:32:00,
2013-05-31 23:42:00,-999.0,-99.9,29.72,SSE,150,8.0,-999.0,-999,0.01,,,-99.99,,2013-05-31 23:42:00,
2013-05-31 23:52:00,-999.0,-99.9,29.71,SE,130,5.0,-999.0,-999,0.02,,,-99.99,,2013-05-31 23:52:00,